Location: Gajan
(43.0218°N, 1.1244°E)
Time: 02:43:39
(UTC+00:00)

Cosmos 1943 - Pass Details

Date: 22 April 2021
Orbit: 834 x 849 km, 71.0° (Epoch: 14 May)

Event Time Altitude Azimuth Distance (km) Brightness Sun altitude
Rises 21:42:21 0° 340° (NNW) 3,394 7.5 -26.8°
Reaches altitude 10° 21:44:56 10° 347° (NNW) 2,457 6.4 -27.1°
Enters shadow 21:50:14 42° 57° (ENE) 1,181 3.8 -27.7°
